Powrót do katalogu

DMSP 5D-2 F13 DEB

AktywnySSO
NORAD 40560·DEBRIS·🇺🇸 United States

Wystrzelony Mar 24, 1995 z Vandenberg Space Force Base

Loading…

Następne Przeloty (najbliższe 24 godziny)

TLE

ŚwieżeSource: Space-Track

Epoka: Sep 14, 2026, 02:08 UTC

1 40560U 95015DT  26257.08905264  .00003258  00000-0  92850-3 0  9996
2 40560  98.5991 302.3105 0008800 312.8812  47.1640 14.45906879596277

Śledź DMSP 5D-2 F13 DEB w czasie rzeczywistym z AllMySat

Download on the App Store